Location: Seattle
(47.6064°N, 122.3308°W)
Time: 06:39:23
(UTC-07:00)

Tiros 1 - Pass Details

Date: 01 August 2021
Orbit: 630 x 663 km, 48.4° (Epoch: 25 September)

Event Time Altitude Azimuth Distance (km) Brightness Sun altitude
Rises 22:34:03 0° 280° (W) 2,975 11.4 -15.4°
Reaches altitude 10° 22:36:25 10° 280° (W) 2,058 10.5 -15.6°
Maximum altitude 22:41:10 89° 359° (N) 652 7.1 -16.1°
Enters shadow 22:44:16 21° 101° (E) 1,427 8.5 -16.4°
